User: anonymous   Login
Location: Unspecified
(0.0000°N, 0.0000°E)
Time: 02:24:21
(UTC+00:00)
Language:

ARTEMIS - Orbit

View from above orbital plane
View from above orbital plane
View from above satellite
View from above satellite

Ground track
Ground track

The orbit data is extracted from the following two-line orbital elements,

1 26863U 01029A   19082.62314896 -.00000321  00000-0  00000+0 0  9992
2 26863  13.2859  26.9037 0005733  70.0932 100.1024  0.99295136 65857
Epoch (UTC): 23 March 2019 14:57:20
Eccentricity: 0.0005733
inclination: 13.2859°
perigee height: 36038 km
apogee height: 36086 km
right ascension of ascending node: 26.9037°
argument of perigee: 70.0932°
revolutions per day: 0.99295136
mean anomaly at epoch: 100.1024°
orbit number at epoch: 6585

The dashed part of the orbit path shows where the satellite is in the earth's shadow,  

DLR